FENGYUN 1C DEB

Satellite information

Favourite Embed

Satellite Type and Status

DEBRISIN ORBIT

Key statistics

Satellite FENGYUN 1C DEB at a glance.

Uptime

9714

Days in orbit

Revolutions

≈ 14.5

Per day

Orbit

SSO

Sun Synchronous Orbit

Inclination

98.2

Latest

Satellite identification and parameters

Extended collection of information and parameters for FENGYUN 1C DEB.

Object identification

Identified? True

Debris? True

Object name: FENGYUN 1C DEB

International designator: 1999-025EE

Object number (NORAD): 29836

Object ID (CCSDS): 29836

Country: PEOPLES REPUBLIC OF CHINA (PRC)

Current information (Y/N): Y

RCS size: SMALL

Orbital parameters

Period: 99.03 minutes

Inclination: 98.1879 deg

SMA: 7090.432 km

Apoapsis: 821.871 km

Periapsis: 602.723 km

RAAN: 82.1893 deg

Eccentricy: 0.01545375

Argument of periapsis: 203.9256 deg

Mean anomaly: 211.9627 deg

Mean motion: 14.54098114 rev/day

Mean motion (dot): 0.00005267 rev/day2

B* drag term: 0.0010735271 1/REarth

Two-line elements (TLE)

Creation date: Dec. 12, 2025, 10:14 a.m.

Reference frame: TEME

Reference center: EARTH

Epoch: Dec. 12, 2025, 5:44 a.m. UTC

TLE line 0: 0 FENGYUN 1C DEB

TLE line 1: 1 29836U 99025EE 25346.23939406 .00005267 00000-0 10735-2 0 9997

TLE line 2: 2 29836 98.1879 82.1893 0154537 203.9256 211.9627 14.54098114635486

Live tracking on map

Real-time ground track for satellite FENGYUN 1C DEB.

In-orbit conjunctions

A list of the most updated potential collisions computed for object FENGYUN 1C DEB.

Target Orbit TCA Probability of collision Miss distance Type
NOAA 16 DEB SSO 2025-11-22 13:25:16 0.0002501685 62.0 (m) DEBRIS
JD 3 LEO 2025-01-30 11:17:29 0.000106674 918.0 (m) PAYLOAD
COSMOS 1275 DEB LEO 2024-08-30 12:26:56 0.0001736709 129.0 (m) DEBRIS

Associated space launch

Chinese polar orbiting meteorological satellite

FENGYUN 1C DEB was lifted into orbit during the mission ‘Long March 4B | Feng Yun 1C’, on board a Long March 4B space rocket.

The launch took place on May 10, 1999, 1:33 a.m. from Launch Complex 7.

For more information about the launch, click the button.

Launch to space Long March 4B | Feng Yun 1C
Long March 4B | Feng Yun 1C

Agency: N/A

Status: Launch Successful

Launch date: May 10, 1999, 1:33 a.m. UTC

Rocket: Long March 4B

Launch pad: Launch Complex 7

Location: Taiyuan Satellite Launch Center, People's Republic of China

...

Latest news about this satellite

There are no fresh news available about this satellite. Check back as we update our databases every day.


Newsletter sign-up

Weekly statistics, charts and insights to help you stay on top of the space industry.